| time (UTC) | temp C | wind direction | speed KPH | gust KPH | rain 1hr cm | rain 24hr cm | rain mn cm | humidity % | barometer mb |
| 20260507114603 | 15 | 27 | 14.5 | 30.6 | 0.00 | 0.00 | 0.00 | 89 | 1022.7 |
| 20260507113058 | 15 | 312 | 12.9 | 35.4 | 0.00 | 0.00 | 0.00 | 89 | 1022.8 |
| 20260507111604 | 15 | 338 | 11.3 | 29.0 | 0.00 | 0.00 | 0.00 | 89 | 1022.8 |
| 20260507110059 | 15 | 292 | 9.7 | 33.8 | 0.00 | 0.00 | 0.00 | 89 | 1022.8 |
| 20260507104602 | 15 | 347 | 12.9 | 29.0 | 0.00 | 0.00 | 0.00 | 89 | 1023.0 |
| 20260507103059 | 15 | 337 | 12.9 | 32.2 | 0.00 | 0.00 | 0.00 | 89 | 1023.0 |
| 20260507101634 | 15 | 304 | 14.5 | 29.0 | 0.00 | 0.00 | 0.00 | 89 | 1023.0 |
| 20260507100100 | 15 | 316 | 12.9 | 30.6 | 0.00 | 0.00 | 0.00 | 89 | 1023.2 |
| 20260507094559 | 15 | 323 | 11.3 | 29.0 | 0.00 | 0.00 | 0.00 | 89 | 1023.1 |
| 20260507093100 | 15 | 316 | 9.7 | 24.1 | 0.00 | 0.00 | 0.00 | 89 | 1023.3 |
| 20260507091600 | 14 | 8 | 11.3 | 25.7 | 0.00 | 0.00 | 0.00 | 89 | 1023.4 |
| 20260507090113 | 14 | 325 | 9.7 | 20.9 | 0.00 | 0.00 | 0.00 | 89 | 1023.6 |
| 20260507084601 | 14 | 311 | 9.7 | 20.9 | 0.00 | 0.00 | 0.00 | 89 | 1023.7 |
| 20260507083101 | 14 | 314 | 8.0 | 29.0 | 0.00 | 0.00 | 0.00 | 89 | 1023.7 |
| 20260507081559 | 15 | 327 | 11.3 | 20.9 | 0.00 | 0.00 | 0.00 | 89 | 1023.6 |
| 20260507074601 | 15 | 317 | 12.9 | 24.1 | 0.00 | 0.00 | 0.00 | 88 | 1024.0 |
| 20260507073059 | 15 | 309 | 11.3 | 22.5 | 0.00 | 0.00 | 0.00 | 87 | 1024.1 |
| 20260507071609 | 15 | 358 | 9.7 | 25.7 | 0.00 | 0.00 | 0.00 | 87 | 1024.0 |
| 20260507070100 | 15 | 333 | 12.9 | 29.0 | 0.00 | 0.00 | 0.00 | 87 | 1024.1 |
| 20260507064619 | 15 | 296 | 11.3 | 24.1 | 0.00 | 0.00 | 0.00 | 88 | 1024.2 |
| 20260507063058 | 15 | 300 | 9.7 | 22.5 | 0.00 | 0.00 | 0.00 | 88 | 1024.2 |
| 20260507061556 | 15 | 316 | 9.7 | 24.1 | 0.00 | 0.00 | 0.00 | 88 | 1024.2 |
| 20260507060058 | 15 | 292 | 12.9 | 25.7 | 0.00 | 0.00 | 0.00 | 88 | 1024.2 |
| 20260507054608 | 15 | 259 | 9.7 | 22.5 | 0.00 | 0.00 | 0.00 | 88 | 1024.1 |
| 20260507053059 | 15 | 311 | 9.7 | 24.1 | 0.00 | 0.00 | 0.00 | 88 | 1024.1 |
| 20260507051556 | 15 | 274 | 11.3 | 24.1 | 0.00 | 0.00 | 0.00 | 89 | 1024.1 |
| 20260507044558 | 15 | 240 | 11.3 | 22.5 | 0.00 | 0.00 | 0.00 | 89 | 1024.1 |
| 20260507043101 | 15 | 240 | 11.3 | 20.9 | 0.00 | 0.00 | 0.00 | 89 | 1024.1 |
| 20260507041608 | 15 | 276 | 11.3 | 24.1 | 0.00 | 0.00 | 0.00 | 89 | 1024.2 |
| 20260507040058 | 15 | 281 | 8.0 | 19.3 | 0.00 | 0.00 | 0.00 | 88 | 1024.1 |
| 20260507034607 | 15 | 303 | 8.0 | 24.1 | 0.00 | 0.00 | 0.00 | 88 | 1024.4 |
| 20260507033058 | 15 | 274 | 11.3 | 27.4 | 0.00 | 0.00 | 0.00 | 88 | 1024.6 |
| 20260507031600 | 16 | 261 | 12.9 | 25.7 | 0.00 | 0.00 | 0.00 | 88 | 1024.5 |
| 20260507030105 | 16 | 307 | 12.9 | 24.1 | 0.00 | 0.00 | 0.00 | 88 | 1024.5 |
| 20260507024604 | 16 | 282 | 12.9 | 22.5 | 0.00 | 0.00 | 0.00 | 87 | 1024.5 |
| 20260507023113 | 16 | 291 | 11.3 | 24.1 | 0.00 | 0.00 | 0.00 | 87 | 1024.5 |
| 20260507021558 | 16 | 340 | 11.3 | 29.0 | 0.00 | 0.00 | 0.00 | 87 | 1024.7 |
| 20260507020059 | 16 | 278 | 11.3 | 29.0 | 0.00 | 0.00 | 0.00 | 87 | 1024.6 |
| 20260507014608 | 16 | 289 | 9.7 | 27.4 | 0.00 | 0.00 | 0.00 | 87 | 1024.7 |
| 20260507013114 | 16 | 283 | 12.9 | 25.7 | 0.00 | 0.00 | 0.00 | 87 | 1024.7 |
| 20260507011558 | 16 | 299 | 9.7 | 24.1 | 0.00 | 0.00 | 0.00 | 87 | 1024.7 |
| 20260507010100 | 16 | 350 | 12.9 | 29.0 | 0.00 | 0.00 | 0.00 | 87 | 1024.9 |
| 20260507004557 | 16 | 32 | 12.9 | 27.4 | 0.00 | 0.00 | 0.00 | 87 | 1025.0 |
| 20260507003100 | 16 | 8 | 17.7 | 29.0 | 0.00 | 0.00 | 0.00 | 87 | 1025.0 |
| 20260507001620 | 16 | 315 | 14.5 | 29.0 | 0.00 | 0.00 | 0.00 | 87 | 1025.1 |
| 20260506234558 | 16 | 309 | 16.1 | 32.2 | 0.00 | 0.00 | 0.00 | 87 | 1025.2 |
| 20260506233107 | 16 | 297 | 14.5 | 30.6 | 0.00 | 0.00 | 0.00 | 87 | 1025.7 |
| 20260506231600 | 16 | 309 | 12.9 | 29.0 | 0.00 | 0.00 | 0.00 | 87 | 1025.8 |
| 20260506230059 | 16 | 288 | 16.1 | 29.0 | 0.00 | 0.00 | 0.00 | 87 | 1025.9 |
| 20260506224604 | 16 | 274 | 14.5 | 30.6 | 0.00 | 0.00 | 0.00 | 87 | 1025.8 |
| 20260506223123 | 16 | 298 | 14.5 | 29.0 | 0.00 | 0.00 | 0.00 | 87 | 1025.9 |
| 20260506221610 | 16 | 337 | 12.9 | 30.6 | 0.00 | 0.00 | 0.00 | 87 | 1025.9 |
| 20260506220059 | 16 | 14 | 12.9 | 27.4 | 0.00 | 0.00 | 0.00 | 87 | 1025.9 |
| 20260506214609 | 16 | 324 | 14.5 | 27.4 | 0.00 | 0.00 | 0.00 | 88 | 1026.0 |
| 20260506213059 | 16 | 277 | 11.3 | 25.7 | 0.00 | 0.00 | 0.00 | 88 | 1026.2 |
| 20260506211558 | 16 | 323 | 12.9 | 25.7 | 0.00 | 0.00 | 0.00 | 88 | 1026.2 |
| 20260506210126 | 16 | 342 | 11.3 | 22.5 | 0.00 | 0.00 | 0.00 | 89 | 1026.3 |
| 20260506204558 | 15 | 275 | 11.3 | 30.6 | 0.00 | 0.00 | 0.00 | 89 | 1026.3 |
| 20260506203104 | 15 | 274 | 12.9 | 27.4 | 0.00 | 0.00 | 0.00 | 89 | 1026.4 |
| 20260506201558 | 15 | 284 | 12.9 | 27.4 | 0.00 | 0.00 | 0.00 | 89 | 1026.4 |
| 20260506200150 | 15 | 309 | 11.3 | 25.7 | 0.00 | 0.00 | 0.00 | 89 | 1026.5 |
| 20260506194612 | 15 | 264 | 11.3 | 25.7 | 0.00 | 0.00 | 0.00 | 89 | 1026.5 |
| 20260506193058 | 15 | 312 | 11.3 | 20.9 | 0.00 | 0.00 | 0.00 | 89 | 1026.4 |
| 20260506191600 | 15 | 294 | 12.9 | 22.5 | 0.00 | 0.00 | 0.00 | 89 | 1026.4 |
| 20260506190100 | 15 | 257 | 11.3 | 25.7 | 0.00 | 0.00 | 0.00 | 89 | 1026.5 |
| 20260506184600 | 15 | 251 | 11.3 | 29.0 | 0.00 | 0.00 | 0.00 | 89 | 1026.4 |
| 20260506183059 | 15 | 303 | 11.3 | 27.4 | 0.00 | 0.00 | 0.00 | 89 | 1026.4 |
| 20260506181600 | 15 | 336 | 12.9 | 24.1 | 0.00 | 0.00 | 0.00 | 89 | 1026.4 |
| 20260506180108 | 15 | 294 | 11.3 | 25.7 | 0.00 | 0.00 | 0.00 | 89 | 1026.5 |
| 20260506174559 | 15 | 290 | 14.5 | 25.7 | 0.00 | 0.00 | 0.00 | 89 | 1026.6 |
| 20260506173124 | 15 | 311 | 12.9 | 27.4 | 0.00 | 0.00 | 0.00 | 89 | 1026.7 |
| 20260506171603 | 15 | 315 | 14.5 | 29.0 | 0.00 | 0.00 | 0.00 | 89 | 1026.8 |
| 20260506164605 | 15 | 294 | 14.5 | 29.0 | 0.00 | 0.00 | 0.00 | 89 | 1026.8 |
| 20260506163107 | 15 | 307 | 12.9 | 25.7 | 0.00 | 0.00 | 0.00 | 89 | 1026.9 |
| 20260506161601 | 15 | 223 | 12.9 | 32.2 | 0.00 | 0.00 | 0.00 | 89 | 1026.7 |
| 20260506160108 | 15 | 225 | 14.5 | 27.4 | 0.00 | 0.00 | 0.00 | 89 | 1026.9 |
| 20260506154600 | 15 | 340 | 11.3 | 24.1 | 0.00 | 0.00 | 0.00 | 89 | 1027.0 |
| 20260506151657 | 15 | 262 | 14.5 | 29.0 | 0.00 | 0.00 | 0.00 | 89 | 1027.1 |
| 20260506150105 | 15 | 323 | 12.9 | 25.7 | 0.00 | 0.00 | 0.00 | 90 | 1027.2 |
| 20260506144600 | 15 | 281 | 12.9 | 29.0 | 0.00 | 0.00 | 0.00 | 90 | 1027.1 |
| 20260506143104 | 15 | 294 | 12.9 | 29.0 | 0.00 | 0.00 | 0.00 | 90 | 1027.4 |
| 20260506141559 | 15 | 215 | 12.9 | 24.1 | 0.00 | 0.00 | 0.00 | 90 | 1027.5 |
| 20260506140101 | 15 | 290 | 11.3 | 24.1 | 0.00 | 0.00 | 0.00 | 90 | 1027.7 |
| 20260506134619 | 15 | 298 | 12.9 | 25.7 | 0.00 | 0.00 | 0.00 | 90 | 1028.0 |
| 20260506133101 | 15 | 285 | 12.9 | 24.1 | 0.00 | 0.00 | 0.00 | 90 | 1027.8 |
| 20260506131612 | 15 | 303 | 11.3 | 24.1 | 0.00 | 0.00 | 0.00 | 90 | 1027.8 |
| 20260506130100 | 15 | 258 | 11.3 | 24.1 | 0.00 | 0.00 | 0.00 | 90 | 1027.9 |
| 20260506124609 | 15 | 307 | 6.4 | 17.7 | 0.00 | 0.00 | 0.00 | 90 | 1028.1 |
| 20260506123059 | 15 | 287 | 9.7 | 24.1 | 0.00 | 0.00 | 0.00 | 89 | 1028.1 |
| 20260506121609 | 15 | 255 | 14.5 | 25.7 | 0.00 | 0.00 | 0.00 | 89 | 1028.1 |